Regional Weather Roundup
Issued by NWS

Home | Current Version | Previous Version | Text Only | Print | Product List | Glossary On
Versions: 1 2 3 4 5 6 7 8 9 10 11 12 13 14 15 16 17 18 19 20 21 22 23 24 25 26 27 28 29 30 31 32 33 34 35 36 37 38 39 40 41 42 43 44 45 46 47 48 49 50
000
ASUS45 KBOI 240510
RWRID

IDAHO REGIONAL WEATHER ROUNDUP
NATIONAL WEATHER SERVICE BOISE ID
1100 PM MDT TUE AUG 23 2016

NOTE: "FAIR" INDICATES FEW OR NO CLOUDS BELOW 12000 FEET
WITH NO SIGNIFICANT WEATHER AND/OR OBSTRUCTIONS TO VISIBILITY

IDZ012-014-240600-
SOUTHWEST IDAHO


CITY           SKY/WX    TMP DP  RH WIND       PRES   REMARKS
BOISE          CLEAR     67  32  27 N6        30.08R
CALDWELL       CLEAR     66  38  35 W6        30.07R
MOUNTAIN HOME  CLEAR     63  29  27 NW8       30.07S
$$

IDZ016-017-240600-
SOUTHCENTRAL IDAHO


CITY           SKY/WX    TMP DP  RH WIND       PRES   REMARKS
BURLEY         CLEAR     58  31  35 SE8       30.12R
JEROME         CLEAR     58  26  29 SW7       30.11R
TWIN FALLS     CLEAR     56  23  27 S14       30.11F
$$

IDZ019>023-240600-
SOUTHEAST IDAHO


CITY           SKY/WX    TMP DP  RH WIND       PRES   REMARKS
IDAHO FALLS    CLEAR     57  24  28 SW10      30.13R
POCATELLO      CLEAR     63  20  19 S10       30.13R
REXBURG        CLEAR     62  21  20 S10       30.12R
$$

IDZ006-010-011-018-031-032-240600-
CENTRAL IDAHO MOUNTAINS


CITY           SKY/WX    TMP DP  RH WIND       PRES   REMARKS
MCCALL         CLEAR     60  32  34 VRB3      30.23R
HAILEY         CLEAR     54  30  40 NW7       30.16R
STANLEY          N/A     46  20  35 CALM      30.26R
SALMON         CLEAR     61  32  33 E7        30.18R
CHALLIS        CLEAR     59  27  29 NW10      30.18R
$$

IDZ002-004-006-007-026-240600-
NORTHERN IDAHO


CITY           SKY/WX    TMP DP  RH WIND       PRES   REMARKS
LEWISTON       CLEAR     69  38  32 S7        30.12R
LOWELL           N/A     58  45  62 CALM      30.17R
COEUR D`ALENE  CLEAR     61  43  51 N8        30.15R
MULLAN PASS    CLEAR     52  35  52 N3        30.30S
$$



USA.gov is the U.S. government's official web portal to all federal, state and local government web resources and services.